Location: *
(58.4167°N, 22.5000°E)
Time: 22:48:16
(UTC+00:00)

SJ-6B - Pass Details

Date: 22 September 2019
Orbit: 509 x 583 km, 97.6° (Epoch: 15 October)

Event Time Altitude Azimuth Distance (km) Brightness Sun altitude
Exits shadow 18:10:36 - 174° (S) 2,661 6.0 -13.5°
Reaches altitude 10° 18:12:29 10° 178° (S) 1,888 5.3 -13.8°
Maximum altitude 18:16:31 58° 258° (WSW) 675 3.5 -14.3°
Drops below altitude 10° 18:20:31 10° 338° (NNW) 1,868 6.2 -14.7°
Sets 18:22:41 0° 343° (NNW) 2,757 7.1 -15.0°
